Location: Newark
(50.4348°N, 30.5552°E)
Time: 15:23:41
(UTC+00:00)

Altair - Pass Details

Date: 23 January 2020
Orbit: 1502 x 1682 km, 47.2° (Epoch: 25 February)

Event Time Altitude Azimuth Distance (km) Brightness Sun altitude
Rises 14:56:03 0° 287° (WNW) 4,920 11.0 -3.9°
Reaches altitude 10° 15:00:50 10° 268° (W) 3,906 10.9 -4.6°
Maximum altitude 15:06:14 16° 235° (SW) 3,393 10.8 -5.3°
Drops below altitude 10° 15:11:32 10° 201° (SSW) 3,825 10.3 -6.1°
Sets 15:16:12 0° 182° (S) 4,769 10.4 -6.8°
